軌道要素
Epoch 2018 May 2.0 TT = JDT 2458240.5
T 2018 Apr. 29.92255 TT Rudenko
q 7.9279313 (2000.0) P Q
z -0.0005183 Peri. 196.35218 +0.04279091 +0.86104994
+/-0.0000010 Node 281.61654 +0.96478360 +0.09614229
e 1.0041089 Incl. 148.84782 +0.25954103 -0.49934924
From 738 observations 2015 Dec. 4-2020 Oct. 20, mean residual 0".9.
|